Location: Livorno
(43.5500°N, 10.3170°E)
Time: 16:47:08
(UTC+01:00)

Envisat - Pass Details

Date: 01 November 2020
Orbit: 764 x 766 km, 98.1° (Epoch: 30 November)

Event Time Altitude Azimuth Distance (km) Brightness Sun altitude
Rises 04:54:45 0° 33° (NNE) 3,240 6.7 -22.2°
Reaches altitude 10° 04:58:19 10° 58° (ENE) 2,307 6.3 -21.5°
Maximum altitude 05:00:50 14° 89° (E) 2,051 6.3 -21.1°
Drops below altitude 10° 05:03:22 10° 119° (ESE) 2,298 6.4 -20.6°
Sets 05:06:52 0° 145° (SE) 3,217 6.8 -20.0°
